Flag for United Kingdom Weather past 2 weeks in Stornoway, Scotland, United Kingdom

Now
50 °F

Cool.


Feels Like: 46 °F
Forecast: 48 / 60 °F
Wind: 10 mph from South

Location: Stornoway

Current Time: Aug 1, 2015 at 4:59:21 AM

Latest Report: Aug 1, 2015 at 4:20 AM


Visibility: N/A

Pressure: 29.68 "Hg

Humidity: 82%

Dew point: 45 °F

Location of StornowayLocation

Historic Weather in Stornoway — Graph

°F

Stornoway temperature yesterday

Maximum temperature yesterday: 57 °F (at 3:50 PM)
Minimum temperature yesterday: 43 °F (at 10:50 PM)
Average temperature yesterday: 53 °F

Past Weeks' High & Low Weather Summary

 TemperatureHumidityPressure
High66 °F (Jul 17, 1:50 PM)100% (Jul 18, 6:20 PM)30.07 "Hg (Jul 18, 6:20 PM)
Low43 °F (Jul 25, 11:50 PM)55% (Jul 22, 2:20 PM)29.33 "Hg (Jul 21, 4:20 AM)
Average53 °F79%29.73 "Hg
* Reported Jul 17 3:20 AM — Aug 1 3:50 AM, Stornoway, Weather by CustomWeather, © 2015

Note: Actual official high and low records may vary slightly from our data, if they occured in-between our weather recording intervals... More about our weather records

Advertising

Stornoway weather history for previous 24 hours

 ConditionsComfort  
Time TempWeatherWind HumidityBarometerVisibility
3:50 AM
Sat, Aug 1
50 °FPassing clouds.12 mph82%29.68 "HgN/A
3:20 AM48 °FPassing clouds.12 mph87%29.71 "HgN/A
2:50 AM48 °FCool.10 mph87%29.71 "HgN/A
2:20 AM45 °FQuite cool.6 mph81%29.71 "HgN/A
1:50 AM43 °FQuite cool.6 mph81%29.71 "HgN/A
1:20 AM43 °FQuite cool.2 mph81%29.71 "HgN/A
12:50 AM43 °FQuite cool.2 mph87%29.71 "HgN/A
12:20 AM43 °FQuite cool.2 mph81%29.71 "HgN/A
11:50 PM
Fri, Jul 31
43 °FQuite cool.3 mph81%29.74 "HgN/A
11:20 PM43 °FQuite cool.No wind81%29.74 "HgN/A
10:50 PM43 °FQuite cool.No wind81%29.74 "HgN/A
10:20 PM46 °FCool.3 mph76%29.74 "HgN/A
9:50 PM48 °FCool.No wind76%29.71 "HgN/A
9:20 PM52 °FCool.No wind77%29.71 "HgN/A
8:20 PM54 °FPassing clouds.7 mph72%29.71 "HgN/A
7:50 PM57 °FPassing clouds.7 mph67%29.74 "HgN/A
7:20 PM57 °FScattered clouds.9 mph72%29.74 "HgN/A
6:50 PM57 °FScattered showers. Scattered clouds.10 mph67%29.74 "HgN/A
6:20 PM57 °FScattered clouds.9 mph72%29.74 "HgN/A
5:50 PM57 °FScattered clouds.9 mph88%29.74 "HgN/A
5:20 PM57 °FScattered clouds.10 mph88%29.74 "HgN/A
4:50 PM57 °FScattered clouds.13 mph88%29.74 "HgN/A
4:20 PM57 °FScattered showers. Scattered clouds.15 mph88%29.74 "HgN/A
3:50 PM57 °FDrizzle. Broken clouds.18 mph88%29.71 "HgN/A
3:20 PM55 °FDrizzle. Broken clouds.20 mph94%29.71 "HgN/A
2:50 PM55 °FDrizzle. Broken clouds.23 mph94%29.74 "HgN/A
2:20 PM55 °FDrizzle. Broken clouds.23 mph94%29.74 "Hg2 mi
1:50 PM54 °FDrizzle. Broken clouds.18 mph100%29.74 "Hg2 mi
1:20 PM54 °FDrizzle. Broken clouds.22 mph100%29.74 "HgN/A
12:50 PM54 °FDrizzle. Broken clouds.18 mph100%29.77 "HgN/A
12:20 PM54 °FDrizzle. Broken clouds.21 mph100%29.77 "Hg4 mi
11:50 AM54 °FDrizzle. Broken clouds.20 mph100%29.77 "Hg4 mi
11:20 AM54 °FDrizzle. Broken clouds.20 mph100%29.77 "HgN/A
10:50 AM54 °FLight rain. Broken clouds.20 mph100%29.77 "HgN/A
10:20 AM55 °FDrizzle. Broken clouds.16 mph94%29.80 "Hg3 mi
9:50 AM55 °FLight rain. Broken clouds.17 mph94%29.80 "HgN/A
9:20 AM55 °FScattered showers. Broken clouds.15 mph94%29.83 "HgN/A
8:50 AM55 °FScattered showers. Scattered clouds.15 mph94%29.83 "HgN/A
8:20 AM54 °FRain. Broken clouds.14 mph94%29.83 "HgN/A
7:50 AM54 °FLight rain. Broken clouds.14 mph94%29.83 "HgN/A
7:20 AM54 °FScattered showers. Broken clouds.15 mph94%29.83 "HgN/A
6:50 AM54 °FScattered showers. Scattered clouds.15 mph94%29.86 "HgN/A
6:20 AM52 °FScattered showers. Broken clouds.15 mph94%29.86 "HgN/A
5:50 AM52 °FPassing clouds.14 mph88%29.86 "HgN/A
5:20 AM52 °FPassing clouds.15 mph88%29.86 "HgN/A
4:50 AM52 °FLight rain. Passing clouds.12 mph82%29.89 "HgN/A
4:20 AM52 °FPassing clouds.10 mph82%29.89 "HgN/A
Weather by CustomWeather, © 2015

See weather overviewHow to use our weather pages